Home   Weather   Stange   Past weeks

Flag for Norway Past Weather in Stange, Norway — Yesterday and Last 2 Weeks

Now
57 °F

Cool.


Feels Like: 56 °F
Forecast: 45 / 65 °F
Wind: 5 mph from North

Location: Haugedalshogda

Current Time: Aug 21, 2017 at 10:43:48 am

Latest Report: Aug 21, 2017 at 10:00 am


Visibility: N/A

Pressure: 29.98 "Hg

Humidity: 70%

Dew Point: 47 °F

Location of StangeLocation

Past Weather in Stange — Graph

°F

Stange Temperature Yesterday

Maximum temperature yesterday: 63 °F (at 6:00 pm)
Minimum temperature yesterday: 49 °F (at 5:00 am)
Average temperature yesterday: 56 °F

High & Low Weather Summary for the Past Weeks

 TemperatureHumidityPressure
High71 °F (Aug 11, 4:00 pm)95% (Aug 7, 2:00 am)30.20 "Hg (Aug 7, 2:00 am)
Low31 °F (Aug 14, 6:00 am)30% (Aug 13, 7:00 pm)29.55 "Hg (Aug 19, 2:00 pm)
Average56 °F78%29.88 "Hg
* Reported Aug 6 8:00 am — Aug 21 8:00 am, Stange. Weather by CustomWeather, © 2017

Note: Actual official high and low records may vary slightly from our data, if they occured in-between our weather recording intervals... More about our weather records

Advertising

Stange Weather History for the Previous 24 Hours

Scroll right to see more
 ConditionsComfort  
Time TempWeatherWind HumidityBarometerVisibility
8:00 am
Mon, Aug 21
57 °FCool.N/A74%29.96 "HgN/A
7:00 am53 °FCool.1 mph87%29.95 "HgN/A
6:00 am49 °FCool.No wind90%29.94 "HgN/A
5:00 am48 °FCool.1 mph94%29.93 "HgN/A
4:00 am47 °FCool.1 mph94%29.92 "HgN/A
3:00 am50 °FCool.1 mph94%29.91 "HgN/A
2:00 am50 °FCool.1 mph94%29.90 "HgN/A
12:00 am50 °FCool.No wind93%29.88 "HgN/A
11:00 pm
Sun, Aug 20
50 °FCool.No wind92%29.86 "HgN/A
10:00 pm53 °FCool.1 mph91%29.84 "HgN/A
9:00 pm54 °FCool.2 mph90%29.82 "HgN/A
8:00 pm58 °FCool.3 mph71%29.79 "HgN/A
7:00 pm62 °FCool.2 mph63%29.75 "HgN/A
6:00 pm63 °FMild.3 mph60%29.74 "HgN/A
5:00 pm62 °FCool.5 mph63%29.73 "HgN/A
4:00 pm62 °FRefreshingly cool.5 mph60%29.73 "HgN/A
3:00 pm62 °FMild.3 mph55%29.72 "HgN/A
2:00 pm63 °FMild.5 mph51%29.71 "HgN/A
1:00 pm61 °FCool.5 mph67%29.72 "HgN/A
12:00 pm59 °FCool.3 mph68%29.71 "HgN/A
11:00 am62 °FCool.6 mph65%29.70 "HgN/A
10:00 am58 °FCool.5 mph73%29.70 "HgN/A
Weather by CustomWeather, © 2017

See weather overviewHow to use our weather pages